Satellite: PO-28
Catalog number: 22829
Epoch time:      08206.25055076
Element set:     997
Inclination:      098.3678 deg
RA of node:       166.8776 deg
Eccentricity:    0.0010721
Arg of perigee:   117.0274 deg
Mean anomaly:     243.2035 deg
Mean motion:   14.30194473 rev/day
Decay rate:       2.17e-06 rev/day^2
Epoch rev:           77342
Checksum:              317

Satellite: GO-32
Catalog number: 25397
Epoch time:      08206.65450152
Element set:     654
Inclination:      098.3612 deg
RA of node:       239.9629 deg
Eccentricity:    0.0002204
Arg of perigee:   115.0510 deg
Mean anomaly:     245.0896 deg
Mean motion:   14.23145767 rev/day
Decay rate:       -9.9e-07 rev/day^2
Epoch rev:           52154
Checksum:              301

Satellite: NO-44
Catalog number: 26931
Epoch time:      08205.45710849
Element set:    0935
Inclination:      067.0512 deg
RA of node:       191.2185 deg
Eccentricity:    0.0007315
Arg of perigee:   269.3633 deg
Mean anomaly:     090.6622 deg
Mean motion:   14.29529182 rev/day
Decay rate:        5.8e-07 rev/day^2
Epoch rev:           35559
Checksum:              314

Satellite: SO-50
Catalog number: 27607
Epoch time:      08206.32066557
Element set:     659
Inclination:      064.5610 deg
RA of node:       300.8658 deg
Eccentricity:    0.0086271
Arg of perigee:   272.2070 deg
Mean anomaly:     086.9165 deg
Mean motion:   14.71369361 rev/day
Decay rate:       -3.5e-07 rev/day^2
Epoch rev:           30043
Checksum:              299

Satellite: CO-55
Catalog number: 27844
Epoch time:      08205.99155813
Element set:     357
Inclination:      098.7151 deg
RA of node:       213.7456 deg
Eccentricity:    0.0010539
Arg of perigee:   015.7503 deg
Mean anomaly:     344.4012 deg
Mean motion:   14.20588888 rev/day
Decay rate:        2.0e-07 rev/day^2
Epoch rev:           26266
Checksum:              309

Satellite: CO-57
Catalog number: 27848
Epoch time:      08206.55814194
Element set:     308
Inclination:      098.7161 deg
RA of node:       213.3940 deg
Eccentricity:    0.0010505
Arg of perigee:   016.8340 deg
Mean anomaly:     343.3212 deg
Mean motion:   14.20397816 rev/day
Decay rate:        3.9e-07 rev/day^2
Epoch rev:           26271
Checksum:              292

Satellite: AO-51
Catalog number: 28375
Epoch time:      08206.69375311
Element set:     156
Inclination:      098.0691 deg
RA of node:       229.1516 deg
Eccentricity:    0.0085281
Arg of perigee:   039.2447 deg
Mean anomaly:     321.4884 deg
Mean motion:   14.40613940 rev/day
Decay rate:       -6.0e-08 rev/day^2
Epoch rev:           21380
Checksum:              301

Satellite: CO-56
Catalog number: 28941
Epoch time:      08206.83791568
Element set:     234
Inclination:      098.1096 deg
RA of node:       322.7504 deg
Eccentricity:    0.0160224
Arg of perigee:   263.9088 deg
Mean anomaly:     094.3874 deg
Mean motion:   15.58357039 rev/day
Decay rate:     1.4105e-04 rev/day^2
Epoch rev:           13590
Checksum:              332

Satellite: CP4
Catalog number: 31122
Epoch time:      08206.15645384
Element set:     394
Inclination:      098.0418 deg
RA of node:       270.3776 deg
Eccentricity:    0.0085087
Arg of perigee:   213.0049 deg
Mean anomaly:     146.5834 deg
Mean motion:   14.55145118 rev/day
Decay rate:       5.50e-06 rev/day^2
Epoch rev:            6745
Checksum:              297

Satellite: CP3
Catalog number: 31128
Epoch time:      08206.89275740
Element set:     388
Inclination:      098.0346 deg
RA of node:       268.7340 deg
Eccentricity:    0.0102170
Arg of perigee:   217.4964 deg
Mean anomaly:     141.9063 deg
Mean motion:   14.51961686 rev/day
Decay rate:       -4.8e-07 rev/day^2
Epoch rev:            6740
Checksum:              310

/EX
SB KEPS @ AMSAT  $ORB08206.W
Orbital Elements  08206.WEATHER

HR AMSAT ORBITAL ELEMENTS FOR WEATHER SATELLITES
FROM WA5QGD FORT WORTH,TX July 24, 2008
Send Subscribe/unsubscribe to KEPS at 
http://www.amsat.org/mailman/listinfo/keps
BID: ORB08206.W
TO ALL RADIO AMATEURS BT

Satellite: NOAA-10
Catalog number: 16969
Epoch time:      08206.51742263
Element set:     217
Inclination:      098.7213 deg
RA of node:       228.4101 deg
Eccentricity:    0.0013288
Arg of perigee:   073.7611 deg
Mean anomaly:     286.5046 deg
Mean motion:   14.27365106 rev/day
Decay rate:       1.24e-06 rev/day^2
Epoch rev:           13676
Checksum:              289

Satellite: NOAA-11
Catalog number: 19531
Epoch time:      08206.15276406
Element set:     247
Inclination:      098.7987 deg
RA of node:       294.9636 deg
Eccentricity:    0.0011224
Arg of perigee:   326.8083 deg
Mean anomaly:     033.2379 deg
Mean motion:   14.14874849 rev/day
Decay rate:       2.92e-06 rev/day^2
Epoch rev:            2313
Checksum:              317

Satellite: NOAA-12
Catalog number: 21263
Epoch time:      08206.68266582
Element set:     765
Inclination:      098.7670 deg
RA of node:       208.6306 deg
Eccentricity:    0.0013030
Arg of perigee:   021.0229 deg
Mean anomaly:     339.1483 deg
Mean motion:   14.25539613 rev/day
Decay rate:        1.1e-07 rev/day^2
Epoch rev:           89373
Checksum:              292

